Location: Lavington
(51.2833°N, 1.9833°W)
Time: 02:39:57
(UTC+00:00)

Meteor 1-22 Rocket - Pass Details

Date: 01 June 2020
Orbit: 787 x 940 km, 81.2° (Epoch: 05 July)

Event Time Altitude Azimuth Distance (km) Brightness Sun altitude
Rises 21:55:39 0° 346° (NNW) 3,569 9.1 -11.1°
Reaches altitude 10° 21:58:11 10° 346° (NNW) 2,605 8.1 -11.3°
Maximum altitude 22:04:07 81° 260° (W) 900 4.4 -11.8°
Enters shadow 22:09:03 14° 174° (S) 2,210 5.8 -12.1°
